Wind_Speed
12 12 12 13 13 13 13 13 13 13 13 14 15 15 14 14 14 13 14 14 13 11 12 11 17 19 18 19 20 22 24 25 22 20 17 15 18 31 40 42 44 45 55 61 61 63 64 66 73 73 70 69 67 67
10 10 10 11 13 14 13 14 15 15 16 17 17 18 19 19 20 19 18 17 15 14 17 13 15 17 17 19 21 19 19 20 17 10 16 13 13 20 34 38 40 46 49 12 63 63 62 67 72 74 73 71 69 69
13 13 14 15 16 15 17 19 22 22 22 23 24 25 24 24 25 26 26 23 21 19 20 22 20 20 18 17 18 19 21 17 17 15 14 13 16 18 18 24 35 41 49 58 58 59 64 68 71 74 73 71 70 70
17 17 17 17 18 19 22 23 25 26 27 28 29 31 32 33 32 31 33 33 31 28 23 27 28 24 22 20 18 17 22 20 17 17 17 14 24 29 28 32 31 34 43 49 50 55 59 66 69 72 73 72 71 71
17 18 20 22 23 25 26 27 30 33 34 35 36 36 36 37 38 40 40 40 39 38 36 30 32 31 28 25 24 20 19 20 19 19 19 19 18 29 35 33 33 35 35 37 43 50 58 60 67 69 72 74 73 70
22 24 25 27 27 29 30 31 32 34 36 37 38 39 41 43 44 44 46 47 46 46 46 42 39 39 35 31 28 28 24 23 21 20 21 20 18 18 33 40 36 34 32 34 35 46 55 60 63 69 71 73 74 72
26 26 26 26 28 29 30 31 35 39 41 41 43 45 49 53 56 57 57 58 59 57 55 54 49 48 45 38 35 33 31 28 26 25 21 21 21 23 24 33 41 40 40 40 44 46 50 55 61 64 68 70 71 73
26 27 27 30 32 32 34 36 40 43 44 46 50 55 60 61 63 65 67 66 66 65 63 61 58 55 53 48 43 39 37 33 31 29 27 22 23 27 32 26 22 35 43 42 40 39 42 46 54 62 63 65 67 68
30 32 34 35 36 37 39 42 46 48 50 53 60 65 66 66 64 61 55 55 58 61 63 65 62 58 57 53 50 45 43 41 36 35 33 29 27 28 32 28 27 24 33 42 44 39 41 43 48 57 61 62 61 61
31 32 33 34 37 39 42 46 49 52 56 62 66 67 67 64 55 47 43 39 38 40 44 51 56 57 56 54 52 50 47 43 45 42 38 35 35 31 31 32 30 30 26 32 39 48 46 45 45 46 54 58 58 58
32 32 34 37 39 41 45 48 51 54 60 66 68 67 63 53 46 41 34 29 26 26 30 37 41 50 54 54 54 51 51 48 46 45 41 40 39 36 35 34 35 35 34 32 34 37 38 38 37 41 45 48 51 58
34 34 36 38 40 43 46 49 52 57 64 67 66 64 61 48 44 37 30 25 20 20 21 26 34 39 47 55 56 57 55 55 54 52 51 49 42 43 40 38 37 38 39 38 38 36 34 34 39 40 39 45 42 43
32 34 35 37 40 43 46 49 53 59 65 65 64 63 58 44 38 34 28 24 21 18 19 20 26 33 38 44 52 57 58 58 57 57 57 54 54 50 47 44 42 42 41 43 43 42 40 36 36 38 39 38 38 42
34 34 35 37 39 42 45 48 54 60 63 64 63 61 55 42 37 31 27 22 18 16 16 15 21 29 33 37 44 55 58 60 62 62 61 59 58 55 52 49 47 47 47 45 44 46 44 42 36 33 34 38 43 46
30 32 33 35 38 41 44 49 54 61 63 62 59 58 54 40 34 29 26 21 17 15 14 15 19 26 30 32 37 42 49 56 61 63 62 61 61 60 57 55 54 52 52 51 47 45 45 43 41 35 30 29 31 32
28 29 30 33 37 39 44 50 55 60 63 60 57 56 54 41 33 29 25 22 18 16 16 19 21 23 26 30 32 34 38 42 46 50 55 58 59 59 59 59 59 58 57 53 51 47 42 43 41 39 34 30 29 28
25 26 28 33 36 39 45 51 55 60 61 56 55 56 56 45 33 29 25 23 22 19 18 18 20 21 24 28 31 31 33 34 37 38 41 41 41 43 46 47 49 51 52 51 49 46 39 42 38 38 35 32 31 28
23 25 29 33 36 41 46 51 56 60 57 54 53 54 55 45 32 30 25 24 24 22 20 18 16 18 21 22 23 25 25 27 29 30 31 32 34 34 34 33 36 39 42 43 41 36 37 39 34 34 36 34 32 32
23 25 30 33 37 42 47 52 56 56 55 55 53 54 55 43 30 28 22 21 23 23 20 16 14 15 16 18 19 21 23 23 21 19 21 25 25 24 24 25 26 28 31 32 34 36 32 31 31 32 32 31 30 27
22 26 30 34 38 43 48 52 54 55 56 52 51 54 53 39 28 25 18 18 21 19 15 13 10 9 9 13 16 17 18 19 19 20 20 21 20 19 19 22 24 28 33 37 41 39 36 27 27 32 31 33 35 32
23 27 31 35 40 45 49 53 55 56 54 51 51 53 51 36 27 20 12 14 16 13 12 11 10 5 2 1 3 7 10 14 18 19 19 21 20 23 27 30 31 37 37 36 34 32 31 35 42 30 34 34 40 36
24 28 33 37 42 46 51 54 56 55 52 50 51 53 49 34 25 16 9 9 9 8 6 8 13 16 13 10 8 8 9 11 12 15 19 25 31 36 37 35 33 31 29 24 22 20 22 24 29 31 33 33 30 34
25 30 35 39 43 47 51 55 54 53 51 48 49 52 45 31 22 15 5 4 1 4 8 15 24 25 23 17 14 13 13 15 19 25 25 35 44 41 36 40 33 29 28 26 23 31 32 32 31 27 31 33 36 39
27 32 35 39 44 48 52 53 54 53 49 45 49 49 38 27 19 15 2 4 9 3 19 24 24 28 29 27 24 20 25 31 30 36 27 35 41 38 40 37 33 35 30 26 28 36 34 26 27 33 39 41 42 44
29 32 37 41 45 48 49 51 53 51 47 46 49 48 32 25 16 14 4 12 12 9 16 19 22 24 24 20 21 20 18 21 25 30 40 41 41 41 39 34 31 34 33 26 21 29 35 33 32 32 35 37 42 43
29 33 38 42 46 47 48 50 52 52 47 45 48 40 27 22 14 13 7 15 16 16 21 24 23 21 20 18 12 8 19 20 24 37 37 43 42 38 33 27 26 32 32 31 29 33 41 44 46 47 48 49 52 54
29 34 38 43 45 47 49 50 51 51 46 46 46 31 26 17 11 12 7 16 19 21 20 21 24 21 18 18 19 10 18 24 25 34 44 45 45 43 40 37 35 36 36 37 43 43 45 48 51 53 55 56 54 54
30 35 39 41 44 47 50 52 51 47 44 47 38 28 20 12 9 8 7 15 21 24 25 23 20 23 26 20 24 19 14 22 31 29 35 43 48 48 48 48 44 42 43 45 46 49 50 49 51 52 54 58 60 64
32 36 39 43 47 51 53 51 44 42 44 41 32 24 14 9 7 7 6 13 19 22 23 25 23 24 27 23 23 25 24 23 21 22 27 37 42 44 47 51 55 54 54 55 56 58 58 61 66 68 70 69 66 67
35 38 40 45 49 48 48 43 40 44 43 32 28 18 10 10 9 8 7 11 18 22 23 23 25 26 27 27 26 25 25 24 23 22 31 33 37 41 48 53 53 54 57 60 63 65 65 66 65 65 68 73 77 77
34 37 42 45 47 45 41 38 39 42 37 30 24 12 6 9 10 9 8 11 14 19 21 24 25 26 27 28 30 31 32 32 32 31 31 33 36 37 39 41 45 49 52 56 59 58 58 60 63 63 64 68 68 68
33 39 43 45 42 37 33 37 40 37 29 27 15 7 8 10 10 10 8 8 11 13 16 18 19 19 20 22 23 23 23 24 25 24 24 28 32 35 38 38 40 42 45 45 44 44 45 50 53 58 60 59 57 55
34 37 41 45 41 38 39 40 39 32 26 21 11 8 9 9 7 5 4 5 7 8 7 6 6 7 7 8 10 10 8 6 7 7 6 5 4 5 7 9 12 16 20 22 24 28 33 37 40 41 43 45 45 45
Wind_Direction
51 46 37 31 26 22 18 15 11 7 2 355 352 351 352 352 350 345 343 344 349 337 333 318 290 284 277 277 278 273 271 269 277 294 295 273 253 229 217 219 216 213 213 217 217 217 215 210 211 217 215 217 214 219
31 19 13 9 2 355 354 353 350 341 336 330 328 327 324 324 325 323 325 325 323 318 312 318 320 320 310 284 276 281 280 274 277 279 282 289 244 235 222 222 218 217 213 237 229 217 214 214 214 216 218 219 220 221
346 343 339 339 333 329 325 327 326 324 324 322 320 319 313 311 311 309 307 304 301 303 300 302 304 305 314 309 293 279 275 276 266 257 265 260 263 243 231 233 227 223 216 219 224 221 215 216 217 218 219 222 223 225
326 323 320 322 322 321 321 320 320 317 314 312 308 308 306 303 299 301 301 298 294 290 286 286 291 295 297 300 302 295 279 277 273 260 249 239 240 240 231 233 233 231 228 225 224 225 223 220 218 220 220 222 226 228
319 319 319 316 314 313 313 313 311 310 309 309 308 306 303 298 294 292 291 289 289 287 284 281 277 279 284 286 287 290 288 284 272 264 258 248 249 238 237 235 231 228 228 228 229 227 225 223 223 221 223 223 224 228
308 307 309 312 311 310 312 317 316 312 312 311 309 306 303 302 299 293 290 286 283 281 279 277 271 273 272 273 275 278 277 279 282 271 259 257 248 252 240 243 236 228 219 222 223 226 227 226 225 225 225 225 226 228
304 308 313 317 317 316 316 316 314 314 314 312 310 309 306 303 299 294 289 283 279 274 271 270 268 267 268 267 265 266 267 269 272 273 269 255 251 244 243 236 239 242 232 228 230 224 225 228 228 229 226 228 230 231
305 307 311 315 315 314 315 315 318 317 317 316 316 314 310 305 299 292 286 279 274 269 265 263 260 260 259 259 257 257 259 261 264 266 267 266 253 247 247 246 247 241 239 233 228 232 227 229 227 229 232 233 233 234
301 302 306 309 311 313 314 317 319 319 321 321 320 317 314 310 302 297 292 282 274 267 261 257 255 253 252 251 249 250 252 254 256 256 258 262 260 253 251 244 243 243 229 228 224 224 227 228 228 227 230 234 235 235
300 305 308 311 312 313 315 319 321 323 325 324 323 323 321 315 313 310 302 293 279 267 258 253 250 246 244 244 242 241 245 250 252 254 253 254 257 258 258 250 240 240 236 228 227 229 231 235 235 232 233 233 233 234
294 300 304 312 312 313 317 320 323 325 325 326 327 327 327 324 322 319 315 303 286 272 258 250 244 240 237 235 237 237 237 240 244 249 251 251 250 251 250 252 246 239 236 233 230 232 238 238 236 233 235 238 237 236
290 295 301 307 310 314 318 321 324 326 328 329 331 334 335 330 330 328 326 314 301 279 260 247 243 238 232 232 233 235 235 236 240 244 246 246 246 245 243 248 249 246 240 237 237 234 236 236 236 237 235 237 236 238
291 296 300 305 309 314 318 322 325 327 330 332 336 338 339 334 335 336 332 321 309 293 271 256 237 233 234 234 231 231 232 235 237 239 241 244 245 245 244 243 244 247 243 238 236 237 237 240 238 235 235 235 238 240
289 295 299 305 310 315 319 323 326 330 334 335 337 340 342 337 337 338 338 331 322 300 276 253 238 229 232 233 232 230 231 232 235 237 239 242 244 246 246 245 243 242 245 244 239 234 234 235 237 237 237 239 241 242
290 294 300 306 312 316 320 324 328 332 335 336 338 341 343 337 337 336 335 332 321 303 291 270 244 239 237 234 233 234 234 236 236 238 241 243 246 246 245 245 243 242 243 243 241 239 232 233 234 234 237 238 239 241
291 295 302 309 313 317 321 327 331 333 336 336 337 341 344 339 337 335 331 331 331 315 292 273 261 252 248 248 245 242 240 240 241 241 242 245 246 247 247 246 245 243 241 241 238 237 232 229 232 234 234 230 231 232
292 298 306 310 315 320 324 328 331 334 336 337 338 342 344 340 335 336 328 327 323 317 302 285 270 263 254 247 245 243 244 242 242 241 243 244 245 244 244 244 242 240 238 235 231 231 227 221 226 229 231 233 232 237
293 301 308 312 317 322 327 329 332 335 337 338 338 341 343 340 334 334 328 326 324 320 309 299 273 260 256 251 250 248 245 242 242 242 242 239 237 236 235 234 233 230 227 223 220 212 210 214 222 225 229 233 234 236
296 305 311 314 319 324 327 330 335 337 338 337 338 340 342 340 333 330 323 326 323 321 316 305 288 266 251 247 244 241 238 234 231 225 225 224 224 223 220 218 214 210 203 197 191 183 195 201 207 216 220 218 217 218
300 310 313 315 320 324 328 332 335 338 337 337 337 341 343 340 335 330 327 328 332 340 342 336 314 291 262 241 236 235 234 228 218 212 211 207 200 193 191 185 179 175 172 170 174 183 192 200 222 224 228 222 210 214
304 310 312 316 321 326 329 333 335 336 337 337 337 341 346 343 342 336 331 335 348 354 25 41 40 28 25 232 195 202 206 200 199 201 193 180 173 168 162 158 156 163 162 172 182 193 196 194 212 216 224 219 219 231
306 310 313 317 323 327 329 332 334 335 336 336 338 342 346 344 342 342 331 342 349 20 46 77 94 80 79 79 92 124 153 166 174 172 166 155 149 149 147 144 150 161 168 173 178 199 216 218 217 232 240 240 245 247
307 309 314 320 325 327 329 332 334 334 334 336 338 341 342 340 338 340 317 335 203 5 126 106 96 86 79 84 91 102 114 123 132 136 140 146 144 142 148 143 142 152 161 161 164 211 238 220 226 227 237 241 240 241
304 309 316 321 325 327 330 333 333 334 334 335 337 340 339 337 329 337 253 216 177 186 133 112 97 91 80 75 92 109 120 121 121 124 136 160 149 151 159 158 162 163 161 170 194 211 228 235 247 235 238 243 247 249
305 313 318 322 325 328 330 333 334 335 333 333 336 337 334 332 323 331 233 204 199 192 152 126 120 108 103 87 89 107 130 147 150 164 155 158 160 166 170 172 182 178 178 196 226 226 230 238 244 251 255 255 259 258
309 314 319 323 325 327 328 329 332 335 334 332 334 334 329 327 316 318 266 202 206 180 166 147 141 130 134 137 130 147 141 140 154 163 169 170 170 169 175 175 197 208 216 214 216 213 220 229 237 241 246 251 254 260
312 319 321 322 326 327 327 328 329 332 332 332 333 329 326 324 315 313 253 201 200 195 185 185 174 164 159 171 168 183 171 163 168 178 180 176 177 177 184 188 200 213 209 217 220 224 228 235 242 247 252 257 261 265
317 317 323 328 331 329 327 328 329 330 332 332 332 328 325 320 311 318 253 209 202 199 199 204 201 200 192 197 195 195 207 179 177 181 191 195 192 195 200 206 215 220 220 221 222 228 233 239 247 254 260 262 267 272
314 321 324 328 327 328 329 330 330 331 334 334 332 332 325 311 308 303 252 214 212 213 209 208 213 210 207 216 226 226 231 234 237 229 214 208 212 216 217 222 223 224 227 230 232 235 242 248 249 253 257 262 265 268
320 324 324 325 327 327 329 331 331 334 335 335 335 330 322 305 304 295 266 226 221 225 222 220 217 218 221 219 217 225 236 246 252 237 224 222 218 221 226 228 230 234 239 241 243 246 249 253 255 260 265 267 271 273
323 327 330 329 329 328 328 330 333 335 336 336 339 333 321 309 306 298 272 239 230 231 232 230 231 233 234 234 234 236 235 238 240 245 247 243 239 236 237 240 243 247 251 253 253 257 266 266 265 271 271 272 272 279
330 331 333 336 337 337 336 336 335 337 338 342 341 335 325 319 308 309 294 254 232 229 234 236 239 245 245 246 249 253 256 255 257 257 260 257 258 258 258 259 261 263 265 266 265 264 267 268 269 270 272 272 278 282
338 337 339 344 345 343 343 341 338 337 338 347 346 332 327 321 311 294 285 249 237 233 237 247 247 246 240 223 215 222 224 198 171 173 171 181 207 232 245 254 258 265 270 275 274 272 272 272 274 278 281 284 288 293
Height
10716 10715 10713 10712 10710 10708 10706 10704 10702 10700 10698 10696 10693 10691 10689 10687 10684 10682 10679 10677 10675 10672 10670 10668 10665 10663 10663 10661 10659 10659 10657 10656 10657 10654 10649 10648 10649 10651 10655 10660 10668 10677 10686 10693 10702 10715 10730 10742 10746 10755 10767 10775 10783 10786
10718 10716 10714 10712 10711 10709 10706 10704 10702 10700 10697 10694 10692 10689 10686 10683 10680 10678 10676 10673 10671 10668 10666 10663 10661 10658 10656 10654 10652 10651 10650 10650 10650 10650 10646 10647 10645 10648 10650 10655 10662 10671 10683 10734 10700 10701 10720 10729 10737 10743 10752 10763 10772 10777
10718 10716 10714 10712 10710 10707 10704 10701 10699 10696 10693 10690 10687 10684 10681 10678 10675 10672 10669 10668 10666 10663 10660 10656 10655 10653 10650 10647 10646 10645 10643 10643 10643 10644 10643 10644 10645 10644 10648 10651 10657 10663 10670 10681 10686 10697 10703 10714 10723 10732 10742 10752 10761 10768
10717 10714 10711 10709 10706 10703 10700 10697 10694 10690 10687 10683 10680 10678 10674 10670 10667 10664 10660 10658 10656 10655 10654 10650 10645 10645 10644 10642 10640 10638 10636 10636 10637 10638 10639 10640 10641 10640 10643 10646 10650 10655 10661 10669 10679 10686 10694 10704 10712 10722 10731 10740 10748 10756
10713 10710 10708 10705 10702 10698 10695 10691 10687 10683 10679 10675 10671 10666 10663 10659 10656 10652 10649 10646 10643 10640 10640 10641 10637 10636 10635 10635 10633 10633 10631 10629 10630 10632 10632 10633 10632 10633 10636 10641 10644 10646 10653 10660 10669 10677 10682 10692 10701 10709 10718 10726 10733 10742
10708 10705 10702 10699 10695 10691 10688 10684 10679 10673 10669 10665 10660 10655 10650 10645 10641 10637 10634 10630 10628 10626 10623 10624 10626 10622 10625 10626 10625 10624 10624 10623 10623 10624 10625 10626 10627 10627 10628 10630 10634 10640 10645 10652 10657 10663 10670 10677 10685 10694 10703 10711 10721 10729
10701 10698 10694 10691 10687 10683 10680 10676 10670 10664 10658 10653 10647 10641 10634 10627 10622 10616 10613 10609 10604 10604 10604 10604 10608 10607 10608 10613 10615 10615 10615 10616 10615 10615 10617 10619 10621 10621 10621 10621 10626 10632 10638 10643 10648 10652 10659 10666 10673 10681 10688 10697 10706 10714
10694 10691 10688 10684 10680 10675 10671 10666 10661 10654 10647 10640 10632 10624 10615 10605 10596 10587 10580 10576 10574 10573 10575 10578 10584 10587 10589 10595 10600 10603 10604 10606 10607 10607 10608 10611 10612 10613 10611 10618 10622 10624 10629 10635 10639 10644 10649 10655 10662 10670 10677 10686 10693 10701
10686 10683 10680 10676 10672 10666 10661 10656 10650 10642 10634 10625 10615 10603 10590 10577 10565 10555 10548 10540 10537 10539 10543 10548 10556 10565 10569 10575 10582 10587 10590 10594 10596 10596 10598 10601 10602 10602 10604 10609 10613 10614 10618 10623 10629 10634 10639 10644 10649 10655 10664 10671 10678 10685
10678 10675 10671 10667 10663 10657 10651 10645 10638 10629 10620 10609 10597 10583 10567 10551 10539 10530 10521 10516 10512 10512 10515 10520 10530 10540 10548 10555 10562 10571 10574 10580 10582 10584 10587 10591 10591 10595 10596 10598 10603 10605 10609 10614 10619 10623 10628 10634 10640 10646 10651 10656 10663 10670
10670 10668 10663 10659 10654 10648 10642 10634 10627 10618 10607 10595 10581 10565 10548 10534 10523 10513 10506 10499 10497 10496 10498 10502 10510 10518 10527 10536 10543 10552 10558 10564 10567 10570 10575 10578 10580 10584 10585 10587 10592 10597 10600 10604 10608 10614 10619 10624 10628 10632 10639 10643 10649 10656
10662 10659 10655 10651 10646 10640 10633 10625 10617 10607 10594 10581 10567 10550 10535 10522 10513 10503 10497 10492 10489 10487 10488 10491 10496 10502 10510 10518 10525 10532 10539 10545 10552 10555 10560 10562 10569 10570 10575 10578 10581 10585 10589 10594 10599 10604 10609 10614 10617 10622 10627 10631 10638 10643
10653 10650 10647 10642 10637 10631 10624 10616 10607 10597 10584 10569 10556 10541 10527 10515 10507 10498 10491 10486 10483 10483 10482 10483 10487 10492 10498 10504 10510 10515 10521 10528 10533 10539 10542 10548 10550 10557 10562 10568 10571 10573 10576 10582 10587 10592 10598 10601 10606 10612 10616 10621 10626 10631
10645 10642 10638 10634 10629 10622 10615 10607 10598 10587 10575 10560 10546 10535 10521 10510 10502 10495 10488 10483 10479 10478 10476 10477 10479 10482 10486 10490 10493 10497 10503 10510 10515 10519 10524 10531 10536 10542 10549 10554 10558 10560 10563 10569 10575 10581 10587 10592 10597 10602 10606 10610 10614 10619
10637 10633 10630 10626 10621 10615 10607 10599 10589 10577 10565 10553 10541 10528 10516 10505 10497 10491 10486 10481 10477 10474 10473 10473 10474 10474 10476 10479 10481 10484 10488 10493 10497 10503 10509 10514 10519 10525 10531 10536 10541 10546 10550 10555 10562 10569 10576 10582 10587 10593 10598 10600 10604 10609
10629 10626 10622 10618 10613 10607 10599 10591 10581 10569 10557 10545 10534 10522 10511 10500 10493 10486 10482 10477 10473 10470 10468 10466 10466 10466 10467 10468 10470 10474 10477 10480 10485 10489 10492 10496 10501 10506 10512 10517 10523 10529 10535 10542 10549 10557 10565 10572 10578 10583 10588 10593 10596 10600
10621 10618 10615 10610 10605 10599 10592 10583 10573 10562 10550 10538 10526 10516 10505 10495 10488 10483 10477 10473 10469 10465 10461 10459 10456 10456 10457 10458 10459 10463 10466 10468 10471 10474 10478 10482 10486 10490 10494 10499 10504 10510 10518 10526 10536 10546 10555 10564 10569 10575 10580 10585 10590 10594
10614 10611 10607 10603 10598 10591 10584 10575 10565 10554 10543 10532 10521 10511 10501 10490 10483 10477 10471 10467 10463 10459 10455 10452 10449 10448 10448 10449 10450 10451 10454 10456 10458 10463 10467 10470 10473 10477 10482 10487 10491 10498 10504 10514 10525 10537 10548 10555 10562 10568 10573 10578 10583 10586
10607 10604 10600 10596 10590 10584 10576 10567 10557 10546 10535 10525 10515 10505 10495 10485 10477 10472 10466 10462 10459 10454 10450 10446 10443 10441 10441 10441 10441 10443 10444 10446 10449 10454 10456 10459 10463 10468 10473 10479 10485 10491 10499 10510 10521 10533 10545 10552 10557 10562 10567 10571 10575 10579
10600 10597 10593 10588 10582 10576 10568 10559 10550 10539 10529 10518 10509 10499 10489 10478 10471 10465 10462 10459 10455 10451 10445 10441 10438 10436 10435 10434 10435 10436 10438 10441 10445 10448 10451 10454 10459 10464 10470 10476 10482 10490 10499 10509 10521 10531 10540 10550 10553 10556 10560 10564 10568 10570
10594 10591 10586 10581 10575 10568 10560 10551 10542 10532 10522 10512 10503 10494 10484 10474 10467 10462 10459 10457 10454 10450 10444 10440 10437 10434 10433 10433 10433 10433 10435 10437 10440 10444 10448 10453 10458 10464 10471 10478 10485 10495 10503 10513 10522 10530 10538 10543 10547 10550 10553 10557 10560 10562
10587 10584 10579 10574 10567 10560 10552 10543 10534 10525 10515 10506 10496 10488 10479 10471 10465 10461 10458 10458 10454 10451 10447 10443 10440 10437 10436 10435 10435 10435 10437 10439 10442 10446 10451 10456 10463 10470 10478 10485 10494 10504 10512 10519 10525 10532 10537 10541 10544 10545 10549 10551 10553 10554
10581 10577 10572 10567 10560 10552 10544 10536 10527 10517 10509 10501 10492 10484 10476 10468 10463 10460 10458 10457 10456 10453 10451 10448 10445 10442 10441 10441 10441 10442 10442 10444 10447 10452 10458 10464 10470 10477 10485 10492 10500 10506 10514 10519 10523 10533 10534 10537 10539 10541 10541 10542 10544 10545
10574 10570 10565 10559 10552 10545 10536 10528 10519 10510 10502 10494 10487 10479 10471 10465 10460 10458 10457 10456 10456 10455 10453 10451 10450 10448 10448 10448 10447 10448 10450 10452 10457 10460 10464 10472 10478 10484 10491 10496 10501 10506 10511 10516 10521 10525 10526 10530 10531 10532 10533 10533 10533 10533
10568 10564 10558 10552 10545 10538 10529 10521 10512 10503 10495 10487 10480 10472 10465 10460 10456 10455 10455 10455 10455 10456 10456 10454 10453 10452 10453 10454 10455 10458 10459 10459 10459 10463 10470 10476 10483 10488 10493 10496 10501 10505 10508 10510 10514 10517 10520 10522 10523 10524 10523 10522 10521 10520
10561 10557 10551 10545 10538 10530 10522 10514 10505 10497 10488 10480 10473 10466 10460 10455 10452 10450 10450 10451 10452 10455 10456 10456 10456 10455 10456 10457 10459 10461 10462 10463 10465 10469 10473 10478 10482 10486 10492 10497 10500 10502 10503 10506 10508 10510 10511 10512 10511 10511 10510 10511 10509 10508
10555 10550 10544 10537 10530 10522 10514 10506 10497 10489 10480 10472 10465 10458 10454 10450 10447 10445 10444 10445 10448 10451 10453 10455 10456 10457 10457 10458 10460 10461 10463 10465 10467 10469 10471 10476 10479 10481 10485 10487 10489 10491 10494 10495 10498 10501 10502 10501 10501 10501 10500 10497 10497 10495
10549 10543 10537 10530 10522 10514 10505 10497 10488 10480 10472 10464 10456 10451 10447 10445 10443 10442 10441 10442 10445 10447 10449 10452 10455 10456 10457 10458 10459 10460 10461 10464 10466 10469 10471 10474 10475 10477 10479 10480 10481 10482 10485 10487 10488 10488 10489 10490 10489 10488 10486 10485 10484 10481
10541 10536 10529 10522 10514 10505 10496 10487 10478 10471 10465 10456 10449 10444 10441 10439 10439 10439 10438 10439 10441 10443 10445 10448 10450 10453 10455 10456 10457 10458 10459 10460 10462 10466 10468 10469 10470 10473 10474 10475 10476 10476 10477 10478 10479 10479 10479 10479 10478 10478 10476 10472 10468 10464
10535 10528 10521 10514 10505 10496 10488 10479 10471 10464 10456 10450 10445 10441 10438 10436 10435 10435 10434 10434 10435 10437 10440 10443 10445 10447 10449 10451 10452 10453 10454 10455 10456 10457 10459 10461 10462 10464 10466 10466 10467 10468 10469 10469 10468 10467 10467 10466 10465 10463 10460 10456 10452 10448
10527 10521 10514 10506 10497 10487 10479 10472 10465 10457 10450 10444 10439 10437 10436 10434 10432 10431 10430 10430 10430 10431 10434 10437 10439 10441 10442 10443 10445 10446 10448 10449 10448 10448 10450 10452 10454 10454 10455 10457 10458 10458 10457 10457 10457 10457 10456 10454 10451 10446 10441 10437 10433 10429
10521 10515 10506 10498 10488 10480 10472 10466 10459 10452 10445 10440 10436 10434 10433 10431 10429 10427 10427 10426 10427 10427 10428 10430 10432 10433 10434 10436 10437 10439 10440 10440 10441 10442 10443 10443 10443 10444 10445 10445 10445 10444 10443 10443 10443 10442 10440 10437 10433 10429 10426 10423 10419 10414
10515 10508 10500 10492 10482 10473 10466 10458 10451 10445 10441 10438 10435 10433 10431 10429 10427 10425 10424 10424 10424 10425 10425 10426 10427 10428 10430 10431 10432 10433 10434 10435 10436 10437 10437 10438 10438 10437 10437 10437 10436 10435 10433 10432 10430 10428 10425 10422 10419 10416 10413 10409 10405 10400